Hourly Data Report for October 17, 2016

All times are specified in Local Standard Time (LST). Add 1 hour to adjust for Daylight Saving Time where and when it is observed.

IQALUIT CLIMATE
NUNAVUT

63°44'50.000" N
68°32'40.000" W
33.50 m
2402592
71321
XFB

Download Data

Hourly Data (October 2016)
Hourly Data Report for October 17, 2016
Temp Definition
°C
Dew Point Temp Definition
°C
Rel Hum Definition
%
Wind Dir Definition
10's deg

Wind Spd Definition
km/h
Visibility Definition
km
Stn Press Definition
kPa
Hmdx Definition


Wind Chill Definition


Weather Definition


TIME
00:00 -10.7 -14.0 77 34 20   101.77   -19 LegendNANA
01:00 -12.1 -15.1 79 33 13   101.82   -19 LegendNANA
02:00 -10.5 -14.3 74 35 16   101.87   -18 LegendNANA
03:00 -11.2 -14.7 76 35 12   101.93   -17 LegendNANA
04:00 -10.6 -13.5 79 35 9   101.99   -16 LegendNANA
05:00 -10.5 -13.4 79 32 11   102.03   -16 LegendNANA
06:00 -10.4 -12.8 83 34 11   102.05   -16 LegendNANA
07:00 -9.0 -11.6 81 36 5   102.07   -12 LegendNANA
08:00 -8.0 -10.5 82 33 7   102.08   -12 LegendNANA
09:00 -8.2 -11.1 80 33 10   102.10   -13 LegendNANA
10:00 -8.6 -11.6 79 33 10   102.12   -14 LegendNANA
11:00 -7.6 -10.5 80 33 4   102.11   -10 LegendNANA
12:00 -7.0 -10.8 74 28 4   102.13   -9 LegendNANA
13:00 -7.1 -10.3 78 33 5   102.14   -10 LegendNANA
14:00 -6.6 -9.2 82 0 1   102.14   -7 LegendNANA
15:00 -6.1 -9.3 78 9 6   102.15   -9 LegendNANA
16:00 -6.1 -8.8 81 13 9   102.18   -10 LegendNANA
17:00 -6.2 -8.4 84 13 9   102.18   -10 LegendNANA
18:00 -6.3 -8.5 84 11 7   102.17   -10 LegendNANA
19:00 -6.1 -8.2 85 11 10   102.16   -11 LegendNANA
20:00 -4.9 -7.2 84 12 12   102.13   -10 LegendNANA
21:00 -5.2 -7.5 84 14 11   102.10   -10 LegendNANA
22:00 -5.0 -7.4 84 11 6   102.06   -8 LegendNANA
23:00 -4.4 -6.9 83 7 3   102.03   -6 LegendNANA

Notes on Data Quality.

Legend

  • E = Estimated
  • M = Missing
  • NA = Not Available
  • ‡ = Partner data that is not subject to review by the National Climate Archives
Date modified: